Vertical_Velocity
-1 -0 -1 -1 -1 1 -1 -2 -1 -2 -1 -1 -1 -0 -1 -1 0 -0 -1 -1 -1 -0 0 0 -1 1 -1 -0 -9 -2 -1 -0 -1 0 -2 2 -3 2 2 2 0 5 -3 0 2 1 -1
-1 -2 -1 -0 -1 -2 -1 -1 0 -0 -0 0 1 -0 -1 -0 0 0 -1 -1 -0 -0 -1 0 1 2 1 2 0 0 1 0 -0 -2 -0 -4 6 0 -1 0 3 -1 1 -4 -5 -4 -1
-0 0 -0 -3 1 -1 -1 -0 -1 -0 0 1 1 -1 -1 -0 0 1 0 0 0 -1 -0 -1 -0 1 3 -14 3 -3 -0 1 -0 -2 2 6 -3 -2 5 -0 7 -0 1 -2 -2 -4 -1
-1 -1 1 0 -2 -1 -0 -1 -2 -1 -1 -1 0 -0 1 -0 -1 -2 -1 0 -2 -1 -1 1 -0 -0 -9 0 3 1 3 2 -0 0 -0 -4 -2 -0 2 1 -6 3 6 1 3 1 1
-2 -1 -1 -1 -2 0 -1 -1 -1 -1 -2 -2 -2 -2 -1 -2 -2 -0 1 -1 0 -2 -0 1 2 -1 -4 -3 -3 -0 2 3 2 3 -1 1 -0 -1 6 2 1 4 -1 1 -6 -1 0
-1 -1 -1 0 -1 -1 -1 -0 -0 -1 -2 -3 -2 -2 -2 -2 -3 -4 -1 -2 1 1 0 -0 -1 8 1 3 -2 3 0 -4 -3 4 0 1 2 2 3 4 -3 0 1 -3 1 -5 2
-0 -1 -1 -1 -1 -1 1 -0 -1 -1 -1 -1 -1 -1 -1 -2 -2 -3 -4 -5 -3 -4 2 -6 11 -3 2 10 3 2 -0 1 6 5 2 1 5 -2 -4 -2 -1 2 2 1 -6 -5 1
-0 -1 -1 -1 -1 -0 -0 -2 -2 -2 -2 -1 -0 -0 1 -1 -0 -1 2 2 5 9 -14 16 7 2 7 7 7 5 -4 5 4 -1 4 6 -3 -7 0 -0 2 1 2 -6 -6 -0 4
0 -0 -0 -1 -1 -1 -2 -1 -1 -2 -2 -1 -2 -4 -0 1 -1 1 -2 -0 5 1 5 -9 -0 0 -1 1 -1 12 -3 0 2 3 -0 -1 -12 1 2 -1 4 -2 2 -2 3 -2 -3
-1 -2 -1 -1 -1 -1 -3 -3 -2 -2 -3 -3 -3 -3 -4 -3 -1 -3 -3 -3 -2 3 4 -1 4 -1 4 -2 4 8 -5 11 2 0 1 -0 -6 1 0 0 5 4 -0 1 0 1 -2
-2 -1 -0 -2 -2 -2 -2 -3 -3 -3 -1 -3 -2 -0 -1 -6 -1 -2 2 0 0 2 -4 -2 2 -1 -3 3 -0 2 1 4 -1 -2 4 -17 0 1 2 -5 3 -3 -0 1 1 1 2
-1 -1 -3 -2 -2 -3 -3 -1 -0 -0 -4 -2 -1 -2 -1 -3 -3 -2 -3 -2 0 2 -11 0 3 3 -5 3 2 -0 -1 -1 -1 2 1 -6 -3 0 -4 -1 1 -0 -0 2 2 0 1
-0 -2 -1 -0 -2 -3 -2 -0 -0 -4 -4 -2 -3 -1 -4 -3 -5 -2 1 -3 0 -0 -9 1 0 -1 2 -1 -2 1 2 3 2 2 -0 -6 -3 1 -2 2 3 3 3 -3 -3 1 -6
-1 -0 -1 -2 -3 -0 -3 -3 -3 -2 -2 1 -1 1 -2 -0 2 -5 -3 5 3 -1 2 -0 0 -3 3 0 -1 -1 0 1 1 -2 1 1 -8 0 2 1 3 -2 3 -1 0 0 -2
-3 -2 -2 -3 -2 -2 -2 -3 -2 -2 -5 -5 -1 -3 -5 -2 -3 0 -2 0 6 4 6 2 -11 2 -2 2 1 2 0 1 2 2 3 1 -3 -0 0 -0 0 -1 1 -1 1 -1 1
-1 1 0 -1 -1 -3 -2 -2 -1 -0 -3 -3 -3 -1 -2 -2 -4 -3 4 1 1 2 -0 -1 3 3 1 -2 1 -2 -1 6 -0 2 3 -5 -2 -1 -0 2 -2 2 3 -0 -1 -0 0
-2 -3 -3 -2 -3 -3 -3 -5 -4 -3 -2 -4 -2 5 2 -3 -2 2 1 2 0 3 -1 4 1 -0 2 4 4 -1 -2 5 -1 -3 1 2 5 -15 4 -0 1 4 -0 2 2 0 0
-0 -2 -2 -2 -3 -2 -4 -8 -8 -12 -11 -1 -3 1 -5 -1 -4 0 -0 3 2 -1 -6 -1 2 2 2 0 0 1 4 2 1 5 1 2 3 0 -6 -13 3 3 0 3 3 -8 -2
-2 -3 -2 -1 -5 -3 -3 -4 -3 -2 -6 -8 -3 0 -7 -1 -2 -1 -1 1 -1 -4 1 -2 0 2 0 1 1 3 0 3 0 -1 4 -1 -4 -2 -13 -0 -4 -1 -2 0 1 0 -3
-1 -1 0 -2 -4 -3 -4 -4 -5 -2 -2 1 2 -1 -7 -10 -1 2 0 1 -1 1 2 -0 1 0 -3 -2 -2 -1 -3 -2 -1 1 1 3 0 2 -1 1 8 -1 -2 -2 7 4 -1
-3 -3 -0 -1 1 -3 -4 -2 -7 -7 -4 -5 -4 3 1 -0 -4 -1 -1 -0 -1 -3 -0 1 -2 -0 5 0 -3 0 -3 -9 -7 -6 -0 4 1 3 -2 1 2 3 2 -2 6 -4 10
-1 1 -4 -2 -6 -5 -5 -7 -1 -2 -5 -16 -1 -2 -7 -0 -1 0 -0 4 1 -4 6 -4 0 -1 2 5 7 1 8 2 1 -6 0 -3 -4 2 -6 -2 3 2 -2 0 -0 -3 1
-1 -3 -2 -1 -3 -4 -5 -9 -9 -8 -8 -3 -1 3 5 -3 -2 -2 3 1 -0 2 -8 2 7 6 0 2 6 0 2 -1 0 8 -1 7 3 1 -5 1 -2 -1 1 -0 -2 -0 4
-1 -2 -1 -7 -4 -2 -1 -1 -5 -3 -7 -3 -2 0 1 -2 1 4 0 4 1 0 5 -7 5 8 -13 -6 -12 -7 3 3 7 -6 3 1 3 3 -2 1 3 -3 1 2 5 2 -0
3 -1 -1 -1 -1 -2 -2 -2 -3 -1 4 3 -2 -7 1 -2 4 -3 -3 2 -4 -2 4 9 -3 3 12 -1 1 -2 -7 -3 3 -1 1 1 1 -1 3 1 -9 -19 4 -1 8 -13 3
-3 -2 0 -1 -3 -3 -3 -2 -1 1 0 -1 2 -1 1 3 3 6 4 5 3 -0 -6 -3 -17 -2 -1 3 4 2 -0 -1 -2 -3 0 2 1 3 2 7 1 3 -2 3 1 -4 3
-1 -1 -3 -2 -1 -2 -2 -3 -1 -2 -2 3 -1 4 3 3 -1 2 2 7 3 0 2 -2 3 -13 5 0 2 2 -4 6 1 2 -1 -1 -3 4 -2 1 -8 -2 1 -4 3 -4 -2
-3 -1 -3 -2 -2 -2 -2 1 -1 1 0 -1 -3 5 6 3 -11 -1 2 7 -8 3 4 -14 -11 1 0 2 3 -1 1 -2 0 0 3 5 4 -1 1 5 -19 1 -14 5 1 -17 3
-2 -2 -3 -2 -1 0 -1 -0 -1 -4 -2 6 -4 7 10 9 -19 -4 7 3 7 -6 16 1 -6 1 -3 -0 -2 1 -1 1 1 -5 -4 1 2 2 9 -9 -6 -13 3 -16 7 10 -6
Height
1557 1556 1554 1552 1550 1548 1546 1544 1542 1539 1536 1534 1532 1529 1526 1523 1520 1518 1515 1512 1509 1507 1504 1502 1499 1497 1496 1495 1490 1486 1488 1489 1489 1490 1490 1492 1491 1490 1489 1484 1483 1481 1477 1474 1471 1470 1469
1558 1556 1555 1553 1551 1549 1546 1544 1541 1538 1535 1533 1529 1527 1524 1520 1517 1514 1511 1509 1506 1504 1501 1498 1496 1494 1493 1493 1485 1485 1485 1486 1487 1488 1490 1491 1490 1490 1488 1485 1484 1477 1475 1472 1468 1464 1463
1559 1557 1555 1553 1551 1549 1546 1543 1540 1537 1535 1532 1529 1525 1522 1518 1515 1511 1508 1505 1503 1500 1497 1495 1492 1491 1489 1487 1482 1481 1482 1484 1485 1486 1488 1488 1488 1489 1486 1482 1479 1477 1476 1469 1457 1457 1458
1559 1558 1555 1553 1551 1548 1546 1543 1540 1537 1533 1530 1526 1523 1519 1515 1511 1508 1504 1501 1499 1496 1492 1490 1489 1489 1485 1481 1481 1480 1481 1482 1482 1484 1484 1485 1486 1486 1485 1481 1477 1475 1472 1471 1453 1453 1455
1560 1558 1556 1553 1551 1548 1545 1542 1539 1535 1532 1528 1524 1520 1515 1511 1507 1503 1501 1497 1494 1491 1488 1486 1486 1486 1482 1479 1479 1480 1483 1484 1483 1483 1482 1483 1484 1482 1480 1481 1478 1467 1471 1461 1454 1448 1450
1560 1559 1557 1554 1550 1548 1545 1542 1538 1534 1530 1526 1521 1517 1513 1508 1503 1499 1495 1492 1488 1486 1483 1484 1484 1488 1480 1477 1474 1475 1476 1480 1484 1484 1483 1483 1481 1479 1477 1477 1483 1472 1465 1459 1458 1447 1445
1561 1559 1556 1554 1551 1548 1544 1541 1537 1533 1529 1524 1519 1515 1510 1505 1500 1495 1492 1489 1490 1488 1485 1481 1477 1475 1477 1474 1474 1473 1477 1479 1480 1480 1479 1477 1479 1476 1466 1461 1458 1458 1460 1460 1451 1443 1445
1561 1559 1556 1554 1550 1548 1545 1541 1537 1532 1527 1522 1517 1512 1507 1502 1498 1494 1491 1492 1493 1494 1485 1473 1473 1473 1474 1473 1473 1474 1477 1479 1477 1476 1472 1475 1475 1462 1457 1457 1460 1460 1461 1457 1447 1439 1442
1561 1559 1556 1554 1551 1548 1545 1541 1536 1531 1527 1521 1516 1511 1506 1501 1498 1497 1495 1495 1493 1493 1491 1475 1473 1473 1472 1473 1472 1472 1475 1475 1472 1472 1469 1470 1459 1457 1457 1459 1458 1456 1456 1451 1448 1442 1439
1562 1559 1556 1554 1552 1548 1544 1540 1536 1532 1526 1521 1515 1510 1505 1501 1499 1496 1494 1493 1492 1492 1489 1470 1471 1471 1472 1471 1471 1471 1472 1475 1469 1467 1462 1460 1453 1456 1456 1455 1455 1456 1447 1447 1447 1451 1457
1562 1559 1557 1555 1552 1548 1544 1540 1536 1531 1526 1521 1515 1510 1505 1500 1499 1497 1497 1494 1493 1492 1503 1472 1474 1475 1473 1473 1471 1470 1472 1473 1469 1465 1466 1461 1454 1455 1456 1452 1447 1448 1448 1449 1449 1452 1454
1562 1560 1558 1555 1552 1549 1546 1541 1536 1531 1526 1521 1515 1510 1506 1503 1500 1499 1495 1493 1493 1495 1497 1477 1474 1473 1472 1470 1469 1470 1470 1472 1468 1465 1459 1455 1449 1452 1450 1448 1448 1445 1448 1444 1443 1448 1463
1563 1561 1559 1556 1553 1549 1545 1541 1536 1530 1525 1520 1514 1509 1506 1503 1501 1499 1496 1496 1498 1497 1471 1482 1480 1476 1473 1466 1464 1466 1466 1466 1467 1467 1459 1452 1444 1445 1449 1450 1445 1450 1453 1460 1463 1457 1452
1565 1563 1560 1557 1553 1549 1545 1540 1535 1529 1524 1519 1513 1508 1506 1505 1502 1499 1496 1496 1501 1481 1488 1486 1486 1478 1473 1468 1463 1463 1462 1463 1465 1467 1464 1462 1462 1447 1449 1448 1449 1448 1446 1461 1455 1447 1448
1565 1563 1560 1557 1554 1550 1545 1540 1535 1530 1523 1517 1512 1508 1506 1504 1501 1499 1500 1500 1503 1507 1506 1499 1486 1474 1467 1470 1471 1468 1461 1469 1473 1474 1477 1466 1452 1443 1447 1445 1447 1442 1447 1438 1445 1437 1449
1566 1564 1561 1558 1554 1550 1545 1540 1535 1529 1523 1516 1511 1509 1508 1504 1502 1501 1500 1501 1505 1510 1510 1503 1496 1482 1483 1480 1481 1477 1469 1481 1482 1481 1480 1471 1470 1448 1443 1446 1443 1443 1441 1446 1446 1450 1440
1566 1564 1561 1558 1555 1550 1546 1540 1535 1529 1523 1517 1511 1508 1507 1504 1502 1501 1505 1508 1509 1512 1513 1509 1504 1497 1492 1491 1489 1484 1471 1489 1487 1485 1479 1475 1471 1457 1449 1445 1442 1445 1444 1440 1438 1439 1441
1567 1564 1561 1559 1555 1550 1547 1542 1537 1530 1523 1517 1515 1512 1508 1504 1506 1506 1515 1518 1519 1518 1517 1515 1511 1509 1504 1500 1495 1488 1482 1490 1492 1490 1485 1482 1478 1473 1454 1442 1439 1438 1439 1440 1448 1442 1434
1567 1564 1562 1558 1555 1551 1547 1543 1538 1532 1526 1519 1518 1515 1512 1506 1514 1515 1517 1518 1519 1520 1517 1516 1514 1517 1512 1508 1505 1492 1491 1493 1492 1493 1493 1489 1481 1480 1454 1436 1439 1441 1440 1438 1438 1435 1439
1567 1566 1563 1559 1556 1552 1547 1543 1539 1534 1527 1523 1522 1520 1517 1515 1520 1520 1521 1516 1516 1516 1517 1518 1515 1512 1514 1510 1504 1498 1495 1492 1493 1492 1491 1490 1484 1478 1475 1460 1458 1458 1453 1449 1450 1453 1444
1568 1566 1563 1560 1556 1552 1548 1544 1540 1534 1529 1526 1526 1529 1530 1525 1523 1522 1521 1521 1521 1523 1521 1518 1514 1514 1518 1515 1511 1500 1499 1495 1493 1490 1488 1487 1485 1481 1477 1472 1467 1460 1454 1450 1452 1449 1449
1568 1566 1563 1560 1556 1553 1549 1545 1541 1536 1532 1529 1533 1534 1531 1529 1526 1523 1522 1524 1524 1526 1524 1519 1522 1521 1518 1515 1514 1508 1505 1504 1498 1490 1489 1489 1488 1484 1479 1467 1460 1457 1451 1445 1442 1442 1437
1567 1565 1563 1560 1557 1554 1550 1547 1544 1541 1536 1536 1537 1538 1537 1529 1527 1527 1531 1529 1528 1526 1522 1522 1522 1522 1517 1512 1510 1509 1505 1500 1496 1495 1495 1495 1491 1486 1477 1463 1460 1457 1441 1438 1436 1434 1436
1567 1565 1563 1560 1558 1555 1552 1549 1547 1545 1543 1543 1542 1540 1539 1532 1530 1529 1529 1528 1526 1527 1523 1521 1519 1519 1517 1511 1505 1499 1493 1485 1483 1483 1486 1486 1486 1484 1477 1474 1473 1439 1440 1441 1441 1443 1444
1567 1565 1562 1560 1558 1556 1553 1552 1550 1548 1546 1543 1542 1542 1541 1540 1534 1529 1528 1527 1524 1520 1518 1516 1515 1514 1513 1511 1503 1491 1483 1470 1472 1472 1475 1477 1481 1482 1476 1466 1451 1443 1445 1449 1450 1448 1446
1566 1564 1563 1561 1558 1556 1554 1553 1551 1550 1547 1544 1542 1541 1540 1539 1531 1533 1528 1527 1523 1519 1517 1516 1515 1511 1511 1508 1503 1495 1490 1484 1477 1474 1472 1472 1473 1479 1472 1472 1464 1440 1438 1444 1445 1451 1448
1565 1564 1562 1561 1559 1557 1555 1553 1551 1549 1546 1544 1541 1541 1540 1537 1533 1534 1531 1527 1525 1521 1516 1514 1513 1510 1508 1505 1499 1495 1491 1485 1486 1481 1479 1476 1476 1475 1470 1468 1462 1451 1450 1448 1456 1455 1447
1565 1564 1563 1561 1559 1556 1554 1552 1550 1548 1546 1544 1541 1539 1539 1533 1528 1527 1527 1526 1521 1520 1517 1512 1513 1507 1505 1506 1499 1494 1493 1489 1490 1487 1488 1487 1484 1480 1473 1472 1467 1453 1452 1456 1454 1449 1445
1564 1563 1561 1559 1557 1555 1553 1551 1549 1546 1544 1542 1539 1537 1536 1533 1528 1525 1520 1521 1519 1515 1514 1512 1511 1507 1506 1505 1501 1498 1496 1493 1490 1487 1478 1481 1476 1474 1475 1464 1454 1453 1452 1446 1444 1441 1437